Location: Bonningues
(50.7927°N, 2.0150°E)
Time: 16:20:53
(UTC+00:00)

ALOS 2 - Pass Details

Date: 08 August 2020
Orbit: 630 x 632 km, 97.9° (Epoch: 25 September)

Event Time Altitude Azimuth Distance (km) Brightness Sun altitude
Exits shadow 22:27:35 31° 97° (E) 1,104 3.6 -20.6°
Maximum altitude 22:28:38 36° 66° (ENE) 1,006 3.6 -20.6°
Drops below altitude 10° 22:32:40 10° 1° (N) 2,028 6.2 -20.9°
Sets 22:35:00 0° 353° (N) 2,941 7.4 -21.0°
